Volver al catálogo

COSMOS 249

ActivoMilitarUNKNOWN
NORAD 3504·PAYLOAD·🇷🇺 Russia

Lanzado Oct 20, 1968 desde Baikonur Cosmodrome

Loading…

Próximos Pases (próximas 24 horas)

TLE

ActualizadoSource: Space-Track

Época: Sep 14, 2026, 10:16 UTC

1 03504U 68091A   26257.42792906 -.00000070  00000-0  15529-4 0  9991
2 03504  62.3420  48.1157 1015350  39.5500 327.5275 12.97206844732066

Sigue COSMOS 249 en tiempo real con AllMySat

Download on the App Store